Hourly Weather Rumin

Today, 22 April, Thursday

Time Temperature Precipitation Wind Pressure Humidity
00:00 +6°C° 0.2 mm 4 mps 750 mmHg 84%
01:00 +5°C° 0.2 mm 4 mps 751 mmHg 85%
02:00 +5°C° 0.2 mm 4 mps 751 mmHg 83%
03:00 +3°C° 0.2 mm 5 mps 751 mmHg 81%
04:00 +2°C° 0.2 mm 5 mps 751 mmHg 78%
05:00 +2°C° 0 mm 6 mps 752 mmHg 77%
06:00 +2°C° 0 mm 6 mps 752 mmHg 76%
07:00 +2°C° 0 mm 7 mps 752 mmHg 75%
08:00 +2°C° 0 mm 7 mps 753 mmHg 72%
09:00 +3°C° 0 mm 7 mps 753 mmHg 68%
10:00 +4°C° 0 mm 7 mps 753 mmHg 64%
11:00 +5°C° 0 mm 7 mps 753 mmHg 60%
12:00 +6°C° 0 mm 7 mps 753 mmHg 55%
13:00 +8°C° 0 mm 7 mps 753 mmHg 51%
14:00 +8°C° 0.3 mm 7 mps 753 mmHg 54%
15:00 +6°C° 0.3 mm 7 mps 753 mmHg 58%
16:00 +6°C° 0.3 mm 7 mps 753 mmHg 61%
17:00 +5°C° 0.3 mm 6 mps 753 mmHg 63%
18:00 +5°C° 0.3 mm 5 mps 754 mmHg 64%
19:00 +3°C° 0.3 mm 5 mps 754 mmHg 66%
20:00 +3°C° 0 mm 4 mps 754 mmHg 67%
21:00 +1°C° 0 mm 4 mps 755 mmHg 69%
22:00 +1°C° 0 mm 3 mps 755 mmHg 70%
23:00 0°C° 0 mm 4 mps 755 mmHg 72%

Tomorrow, 23 April, Friday

Time Temperature Precipitation Wind Pressure Humidity
00:00 0°C° 0 mm 4 mps 755 mmHg 75%
01:00 -1°C° 0 mm 4 mps 755 mmHg 77%
02:00 -1°C° 0 mm 4 mps 755 mmHg 80%
03:00 -1°C° 0 mm 4 mps 755 mmHg 83%
04:00 -2°C° 0 mm 4 mps 756 mmHg 87%
05:00 -1°C° 0 mm 4 mps 756 mmHg 83%
06:00 0°C° 0 mm 5 mps 756 mmHg 80%
07:00 +2°C° 0 mm 5 mps 756 mmHg 77%
08:00 +3°C° 0.1 mm 6 mps 756 mmHg 72%
09:00 +4°C° 0.1 mm 7 mps 756 mmHg 67%
10:00 +6°C° 0.1 mm 7 mps 756 mmHg 62%
11:00 +5°C° 0.2 mm 8 mps 756 mmHg 62%
12:00 +5°C° 0.2 mm 8 mps 756 mmHg 63%
13:00 +5°C° 0.2 mm 9 mps 756 mmHg 64%
14:00 +5°C° 0.3 mm 8 mps 756 mmHg 63%
15:00 +6°C° 0.3 mm 7 mps 756 mmHg 62%
16:00 +6°C° 0.3 mm 7 mps 756 mmHg 61%
17:00 +4°C° 0 mm 6 mps 757 mmHg 60%
18:00 +4°C° 0 mm 4 mps 757 mmHg 58%
19:00 +3°C° 0 mm 3 mps 758 mmHg 57%
20:00 +2°C° 0 mm 3 mps 758 mmHg 59%
21:00 +2°C° 0 mm 3 mps 758 mmHg 60%
22:00 +1°C° 0 mm 3 mps 759 mmHg 62%
23:00 +1°C° 0 mm 3 mps 759 mmHg 64%

Day after tomorrow, 24 April, Saturday

Time Temperature Precipitation Wind Pressure Humidity
00:00 +1°C° 0 mm 3 mps 759 mmHg 67%
01:00 0°C° 0 mm 3 mps 759 mmHg 69%
02:00 0°C° 0 mm 3 mps 759 mmHg 71%
03:00 -1°C° 0 mm 3 mps 759 mmHg 72%
04:00 -1°C° 0 mm 3 mps 759 mmHg 74%
05:00 0°C° 0 mm 3 mps 759 mmHg 70%
06:00 +1°C° 0 mm 4 mps 759 mmHg 65%
07:00 +3°C° 0 mm 4 mps 759 mmHg 61%
08:00 +5°C° 0 mm 4 mps 759 mmHg 54%
09:00 +6°C° 0 mm 4 mps 759 mmHg 47%
10:00 +7°C° 0 mm 4 mps 758 mmHg 40%
11:00 +7°C° 0.1 mm 5 mps 758 mmHg 48%
12:00 +7°C° 0.1 mm 5 mps 758 mmHg 55%
13:00 +7°C° 0.1 mm 5 mps 758 mmHg 62%
14:00 +7°C° 0.3 mm 5 mps 757 mmHg 65%
15:00 +7°C° 0.3 mm 5 mps 757 mmHg 68%
16:00 +7°C° 0.3 mm 5 mps 757 mmHg 71%
17:00 +6°C° 0.2 mm 5 mps 757 mmHg 75%
18:00 +5°C° 0.2 mm 4 mps 757 mmHg 79%
19:00 +4°C° 0.2 mm 4 mps 757 mmHg 83%
20:00 +3°C° 0.1 mm 3 mps 758 mmHg 86%
21:00 +4°C° 0.1 mm 2 mps 758 mmHg 88%
22:00 +4°C° 0.1 mm 1 mps 758 mmHg 90%
23:00 +3°C° 0 mm 1 mps 758 mmHg 90%

25 April, Sunday

Time Temperature Precipitation Wind Pressure Humidity
00:00 +2°C° 0 mm 1 mps 759 mmHg 91%
01:00 +2°C° 0 mm 1 mps 759 mmHg 91%
02:00 -1°C° 0 mm 2 mps 759 mmHg 89%
03:00 -1°C° 0 mm 2 mps 759 mmHg 88%
04:00 -1°C° 0 mm 2 mps 759 mmHg 86%
05:00 0°C° 0 mm 3 mps 759 mmHg 81%
06:00 +1°C° 0 mm 3 mps 759 mmHg 75%
07:00 +1°C° 0 mm 4 mps 759 mmHg 69%
08:00 +4°C° 0 mm 4 mps 759 mmHg 61%
09:00 +5°C° 0 mm 5 mps 759 mmHg 53%
10:00 +5°C° 0 mm 6 mps 759 mmHg 45%
11:00 +7°C° 0 mm 6 mps 759 mmHg 43%
12:00 +8°C° 0 mm 7 mps 759 mmHg 40%
13:00 +8°C° 0 mm 7 mps 758 mmHg 37%
14:00 +8°C° 0 mm 7 mps 758 mmHg 40%
15:00 +8°C° 0 mm 7 mps 758 mmHg 43%
16:00 +8°C° 0 mm 7 mps 758 mmHg 46%
17:00 +5°C° 0 mm 6 mps 758 mmHg 50%
18:00 +5°C° 0 mm 4 mps 759 mmHg 55%
19:00 +3°C° 0 mm 3 mps 759 mmHg 59%
20:00 +3°C° 0 mm 2 mps 759 mmHg 62%
21:00 +2°C° 0 mm 2 mps 759 mmHg 65%
22:00 +2°C° 0 mm 2 mps 759 mmHg 68%
23:00 +1°C° 0 mm 2 mps 758 mmHg 70%

26 April, Monday

Time Temperature Precipitation Wind Pressure Humidity
00:00 +1°C° 0 mm 2 mps 758 mmHg 72%
01:00 -1°C° 0 mm 2 mps 758 mmHg 74%
02:00 -1°C° 0 mm 2 mps 758 mmHg 74%
03:00 -1°C° 0 mm 2 mps 758 mmHg 75%
04:00 -1°C° 0 mm 3 mps 757 mmHg 75%
05:00 0°C° 0 mm 3 mps 757 mmHg 69%
06:00 +2°C° 0 mm 3 mps 757 mmHg 64%
07:00 +3°C° 0 mm 4 mps 757 mmHg 58%
08:00 +5°C° 0 mm 4 mps 757 mmHg 54%
09:00 +6°C° 0 mm 4 mps 757 mmHg 50%
10:00 +8°C° 0 mm 4 mps 757 mmHg 46%
11:00 +8°C° 0 mm 4 mps 757 mmHg 44%
12:00 +10°C° 0 mm 3 mps 756 mmHg 42%
13:00 +11°C° 0 mm 3 mps 756 mmHg 39%
14:00 +11°C° 0 mm 3 mps 756 mmHg 39%
15:00 +12°C° 0 mm 2 mps 755 mmHg 39%
16:00 +12°C° 0 mm 2 mps 755 mmHg 39%
17:00 +9°C° 0 mm 2 mps 755 mmHg 44%
18:00 +9°C° 0 mm 1 mps 754 mmHg 49%
19:00 +7°C° 0 mm 1 mps 754 mmHg 54%
20:00 +6°C° 0 mm 2 mps 754 mmHg 56%
21:00 +5°C° 0 mm 2 mps 754 mmHg 57%
22:00 +3°C° 0 mm 3 mps 754 mmHg 59%
23:00 +3°C° 0 mm 3 mps 754 mmHg 59%

27 April, Tuesday

Time Temperature Precipitation Wind Pressure Humidity
00:00 +3°C° 0 mm 3 mps 753 mmHg 60%
01:00 +3°C° 0 mm 3 mps 753 mmHg 61%
02:00 +2°C° 0 mm 3 mps 752 mmHg 63%
03:00 +2°C° 0 mm 3 mps 752 mmHg 65%
04:00 +2°C° 0 mm 3 mps 751 mmHg 67%
05:00 +3°C° 0 mm 3 mps 751 mmHg 65%
06:00 +4°C° 0 mm 4 mps 751 mmHg 64%
07:00 +5°C° 0 mm 4 mps 750 mmHg 63%
08:00 +6°C° 0 mm 5 mps 750 mmHg 59%
09:00 +8°C° 0 mm 6 mps 749 mmHg 56%
10:00 +9°C° 0 mm 6 mps 748 mmHg 52%
11:00 +10°C° 0 mm 6 mps 748 mmHg 51%
12:00 +11°C° 0 mm 6 mps 747 mmHg 50%
13:00 +13°C° 0 mm 6 mps 746 mmHg 49%
14:00 +13°C° 0 mm 6 mps 745 mmHg 52%
15:00 +13°C° 0 mm 5 mps 744 mmHg 55%
16:00 +13°C° 0 mm 4 mps 744 mmHg 58%
17:00 +11°C° 0.6 mm 4 mps 743 mmHg 68%
18:00 +10°C° 0.6 mm 4 mps 743 mmHg 78%
19:00 +8°C° 0.6 mm 3 mps 742 mmHg 88%
20:00 +8°C° 0.8 mm 3 mps 742 mmHg 90%
21:00 +8°C° 0.8 mm 3 mps 742 mmHg 93%
22:00 +7°C° 0.8 mm 3 mps 741 mmHg 95%
23:00 +7°C° 0.5 mm 3 mps 741 mmHg 96%
Show more